Regional Weather Roundup
Issued by NWS

Home | Current Version | Previous Version | Text Only | Print | Product List | Glossary Off
Versions: 1 2 3 4 5 6 7 8 9 10 11 12 13 14 15 16 17 18 19 20 21 22 23 24 25 26 27 28 29 30 31 32 33 34 35 36 37 38 39 40 41 42 43 44 45 46 47 48 49 50

000
ASUS43 KBIS 290559
RWRND

NORTH DAKOTA REGIONAL WEATHER ROUNDUP
NATIONAL WEATHER SERVICE BISMARCK ND
1200 AM CST SAT NOV 29 2014

NOTE: "FAIR" INDICATES FEW OR NO CLOUDS BELOW 12,000 FEET WITH NO
SIGNIFICANT WEATHER AND/OR OBSTRUCTIONS TO VISIBILITY.


NDZ001>003-009>011-017-290700-
NORTHWEST NORTH DAKOTA

CITY           SKY/WX    TMP DP  RH WIND       PRES   REMARKS
WILLISTON      CLOUDY    21  17  84 N8        29.46R WCI  11
6HR MIN TEMP:  18; 6HR MAX TEMP:  25;

MINOT          CLOUDY     9   5  84 CALM      29.43S
$$

NDZ018>021-031>035-040>046-290700-
SOUTHWEST NORTH DAKOTA

CITY           SKY/WX    TMP DP  RH WIND       PRES   REMARKS
BISMARCK       CLOUDY    20  17  88 SE6       29.42F WCI  12
6HR MIN TEMP:  14; 6HR MAX TEMP:  20;

GARRISON         N/A     16  12  84 NE3       29.39S
6HR MIN TEMP:  14; 6HR MAX TEMP:  18;

HETTINGER ARPT CLOUDY    42  30  62 SW8       29.39F
$$

NDZ004>008-012>016-024-026-027-054-290700-
NORTHEAST NORTH DAKOTA

CITY           SKY/WX    TMP DP  RH WIND       PRES   REMARKS
GRAND FORKS    CLOUDY    18  13  80 S10       29.56F WCI   6
DEVILS LAKE    CLOUDY    14   5  67 S12       29.45F WCI   0
$$

NDZ022-023-025-028>030-036>039-047>053-290700-
SOUTHEAST NORTH DAKOTA

CITY           SKY/WX    TMP DP  RH WIND       PRES   REMARKS
FARGO          CLOUDY    21  16  81 S16       29.56F WCI   7
6HR MIN TEMP:  17; 6HR MAX TEMP:  21;

$$




USA.gov is the U.S. government's official web portal to all federal, state and local government web resources and services.